Wetbulb
53.84 53.43 53.14 53.24 52.91 52.93 52.60 52.56 53.22 53.70 53.73 54.11 54.70 54.67 54.84 55.06 54.71 54.71 56.47 58.06 54.13 51.80 51.77 52.40 51.39 49.39 49.31 47.72 42.73 46.39 46.05 45.46 42.93 37.95 35.78 35.22 33.83 36.13 34.21 35.98 36.08 34.27 35.54 34.74 36.08 33.07 29.54 45.84 45.03 39.61 44.14 46.98 46.81 46.49
53.46 53.15 52.77 52.87 52.89 52.64 52.43 52.33 52.85 53.55 53.42 53.94 54.58 54.62 54.34 54.53 54.83 53.85 54.88 58.28 57.54 52.51 52.88 56.62 55.50 54.42 53.12 51.82 49.67 48.73 45.61 45.40 45.02 40.51 39.97 37.91 35.45 37.49 35.78 32.01 39.19 34.18 36.02 32.94 34.69 36.51 43.34 44.72 43.71 46.08 46.42 45.03 45.44 45.47
53.21 52.80 52.52 52.75 52.93 52.46 52.29 52.33 52.60 53.26 53.30 53.43 54.41 54.73 54.55 54.73 54.80 54.15 56.40 57.63 56.11 53.16 53.08 52.70 52.03 55.58 56.54 55.44 55.43 47.23 47.63 49.08 46.56 48.65 43.51 39.55 35.63 38.40 33.96 34.74 35.81 38.28 38.97 34.75 34.74 39.88 40.62 42.21 42.61 43.23 44.29 44.07 44.29 45.26
52.91 52.30 52.52 52.62 52.73 52.38 52.33 52.21 52.27 52.87 53.11 53.34 54.02 54.72 54.80 54.75 54.88 54.32 55.55 57.81 56.08 53.38 48.23 50.69 57.04 54.82 57.04 56.16 54.63 54.02 51.38 51.90 51.63 49.32 44.37 41.29 37.27 41.36 36.71 37.74 34.68 37.88 38.87 35.57 35.24 38.02 38.87 40.94 41.96 42.97 43.78 45.20 44.90 46.99
52.29 51.97 52.15 52.33 52.42 52.29 52.27 52.06 51.95 52.29 52.82 53.21 53.81 54.76 54.87 54.89 55.09 55.03 56.69 57.65 57.97 52.13 48.49 50.24 53.60 56.10 56.83 56.10 53.72 54.74 51.65 51.47 49.50 47.30 44.86 42.18 44.11 40.94 40.73 39.07 34.56 39.40 37.31 33.83 32.75 38.37 36.53 38.13 41.69 42.04 42.31 45.14 47.15 48.52
51.79 51.82 51.88 52.17 52.54 52.19 52.21 51.93 51.81 51.85 52.35 53.04 53.67 54.40 54.65 54.91 54.04 55.48 51.88 57.88 57.39 57.08 49.69 47.41 55.07 54.80 55.45 55.88 54.04 53.55 52.25 51.52 49.05 47.53 45.79 46.81 47.52 44.27 40.62 37.73 41.63 43.29 43.48 41.92 38.78 42.47 41.53 41.14 42.35 42.97 43.80 46.11 48.01 48.46
51.62 51.74 51.81 52.08 52.52 52.29 52.22 51.93 51.66 51.43 51.89 52.54 53.12 53.92 54.15 54.68 54.90 53.10 52.48 55.25 53.47 56.85 49.94 47.32 50.41 55.13 56.36 55.20 53.03 53.04 53.96 51.49 50.71 47.81 46.81 45.41 45.58 44.92 42.97 37.47 43.17 43.28 43.92 43.85 44.10 42.30 39.60 40.56 39.50 42.45 42.29 43.59 46.34 46.92
51.40 51.42 51.48 52.02 52.27 52.21 52.17 52.08 51.60 51.58 51.96 52.42 52.93 53.72 54.25 53.72 53.02 53.79 57.78 53.04 54.66 53.73 52.86 47.64 48.49 52.11 56.79 52.57 50.82 53.97 48.93 51.36 50.24 48.34 48.18 45.55 46.57 45.06 39.97 43.04 44.99 45.10 44.49 43.63 43.86 44.53 43.27 44.21 44.00 42.77 43.27 42.76 42.31 43.08
50.99 51.27 51.39 51.79 52.13 52.32 52.23 52.34 51.71 51.35 51.54 51.73 52.62 53.43 55.10 53.47 54.52 56.54 54.66 53.63 56.55 53.25 49.24 49.69 47.27 44.64 55.52 51.31 52.65 50.37 50.80 45.87 51.14 46.41 46.69 46.66 44.05 35.46 42.44 44.18 44.75 44.46 43.84 44.16 45.24 45.05 44.18 42.74 43.16 42.83 42.06 41.65 40.81 41.86
51.19 51.21 51.48 51.69 52.00 52.40 52.11 52.13 51.96 51.35 51.58 52.12 53.84 54.12 53.18 57.16 54.91 54.54 53.91 50.58 50.32 51.92 52.02 49.54 52.83 48.65 52.54 52.51 50.26 49.30 48.74 44.73 43.98 46.52 49.38 45.36 38.53 46.69 47.37 47.30 48.06 46.48 46.70 46.22 43.30 41.65 42.82 42.91 42.78 42.95 42.49 42.62 42.77 42.38
50.81 50.95 51.42 51.67 52.09 52.28 52.01 51.80 51.81 51.49 51.03 55.37 56.07 55.62 58.46 54.17 56.44 54.21 51.61 51.51 53.00 50.19 52.90 52.76 52.00 49.95 54.93 48.76 48.37 51.59 46.62 47.12 39.30 44.27 44.69 42.47 40.27 46.10 48.36 47.27 48.66 48.65 48.12 46.52 46.70 46.09 45.70 45.24 44.48 43.88 43.47 44.14 43.75 42.99
50.70 51.00 51.19 51.39 51.77 51.96 51.76 51.50 51.59 52.91 59.25 54.79 54.19 56.95 59.87 55.92 54.04 51.30 50.55 51.41 49.61 48.17 52.33 50.45 51.99 52.77 53.18 54.46 47.97 49.16 44.96 45.84 39.15 47.67 43.81 37.07 45.20 47.57 48.25 47.45 48.73 48.92 48.96 48.11 47.61 46.66 46.80 46.60 47.02 46.11 45.13 45.07 44.66 44.59
50.60 51.01 51.16 51.25 51.70 52.06 51.44 50.88 50.87 51.92 52.97 59.48 57.09 55.47 54.01 54.11 43.32 46.11 41.77 45.01 46.60 49.16 50.06 49.81 48.61 54.86 53.80 53.29 47.83 46.57 42.24 40.13 48.02 41.31 39.10 42.05 48.21 48.35 49.33 48.95 48.78 49.66 48.88 49.57 48.84 48.00 48.10 47.79 48.23 47.13 46.16 46.71 46.45 45.05
50.63 50.89 50.88 51.15 51.88 52.48 51.44 50.99 51.24 52.00 53.59 56.26 53.05 42.70 49.80 48.03 48.88 48.05 47.92 49.64 53.42 51.97 51.82 50.52 48.67 51.18 52.77 45.08 45.38 40.83 44.21 45.35 38.78 36.82 36.48 45.81 48.75 49.21 50.46 50.14 49.33 48.63 49.45 48.81 48.79 48.90 48.25 47.47 47.59 48.33 48.07 47.66 46.81 45.90
50.70 50.94 51.15 52.23 53.06 52.48 52.49 52.24 51.32 55.23 56.84 54.48 54.09 43.54 49.92 52.81 53.64 54.00 54.61 53.98 55.53 56.39 53.67 51.71 51.23 50.99 46.82 44.50 44.61 42.38 38.72 37.01 39.72 39.57 44.55 48.87 50.37 50.12 49.71 49.30 49.26 49.11 48.79 48.79 48.90 47.89 48.38 47.76 47.77 47.75 48.62 48.58 48.37 47.75
50.94 50.60 54.08 52.34 51.85 52.15 52.06 52.19 53.87 58.78 58.66 55.53 54.35 51.73 54.04 52.10 51.82 53.70 54.20 53.91 55.75 54.63 55.02 52.88 49.07 45.67 42.86 44.10 40.31 38.42 37.58 36.47 41.96 46.89 47.88 49.79 49.83 49.66 50.59 49.29 49.59 49.79 49.45 49.03 49.37 49.36 48.33 48.32 47.87 48.00 48.64 48.38 48.51 48.88
49.93 56.26 51.79 51.60 51.63 52.47 52.22 56.29 59.88 57.47 55.53 54.32 53.22 55.67 53.40 54.82 54.23 54.56 55.42 55.02 56.53 52.89 49.48 49.57 44.17 42.32 47.28 41.45 39.00 43.34 41.00 44.81 47.29 47.58 49.23 51.59 50.63 50.30 50.32 50.00 49.61 49.44 49.78 49.75 49.04 49.09 49.26 49.66 49.51 48.20 47.50 48.90 49.20 49.66
55.55 55.04 51.90 51.46 52.42 55.80 58.79 56.86 58.19 56.30 53.44 55.35 53.75 54.86 56.57 57.28 55.11 53.88 55.85 56.24 54.38 52.05 50.84 47.81 50.78 44.29 41.79 39.62 41.59 46.23 47.94 49.02 48.72 50.03 50.14 51.59 52.18 51.65 50.63 50.04 50.20 50.06 49.76 50.27 50.04 49.67 49.37 48.51 47.78 46.66 49.30 49.72 48.97 49.26
52.83 52.72 51.36 51.10 52.05 55.02 57.99 58.33 58.58 53.01 54.67 56.59 57.27 57.56 57.52 56.92 55.58 58.40 57.07 56.07 56.38 55.64 52.89 50.30 46.18 44.47 44.72 47.43 47.15 48.72 49.15 48.94 48.28 49.72 50.38 51.31 52.63 51.43 50.43 50.56 50.24 49.94 50.06 50.64 49.87 48.57 48.29 49.32 48.31 47.63 47.03 47.44 46.48 46.99
50.29 50.65 51.06 51.48 51.65 57.44 55.85 56.59 61.78 55.95 53.77 56.68 57.62 56.73 56.84 56.77 57.58 54.77 55.87 55.78 55.33 53.21 48.74 47.80 47.52 48.95 48.94 50.47 51.44 50.64 49.88 50.98 50.41 47.54 48.21 48.98 50.76 50.42 48.72 49.36 48.61 49.62 48.77 48.02 49.62 44.23 48.44 48.42 47.74 47.77 47.06 47.22 46.65 45.79
53.33 57.17 53.35 55.23 55.80 58.35 57.84 56.98 56.81 57.65 57.35 55.13 57.27 56.48 56.59 57.48 56.23 54.47 53.23 56.14 52.05 49.91 48.63 50.51 50.14 51.74 53.86 53.94 52.98 52.04 52.10 51.83 49.42 49.21 48.28 48.20 49.15 48.89 48.67 48.09 49.11 49.02 47.31 47.58 47.86 47.36 46.45 47.57 47.39 48.09 47.39 46.60 47.29 47.73
61.31 54.57 61.10 58.14 58.39 59.08 57.60 58.64 57.19 58.03 57.12 56.56 52.56 56.36 51.00 53.49 53.89 53.56 55.36 52.07 51.37 51.02 51.94 51.74 51.77 52.14 52.37 52.72 51.56 53.82 53.55 52.92 53.12 50.87 46.94 47.56 46.16 46.94 46.51 46.92 47.25 46.63 46.05 45.95 47.19 44.98 46.21 47.42 46.61 48.21 47.54 47.38 47.39 46.60
53.60 57.90 60.37 60.10 56.16 53.06 51.00 59.95 55.93 56.80 53.57 54.34 56.12 53.00 53.39 54.34 55.98 57.02 48.71 52.10 52.67 54.27 54.18 53.78 54.00 55.41 54.00 54.52 54.23 53.98 53.15 52.66 51.07 50.09 49.42 49.00 48.52 48.31 47.44 46.61 47.03 46.14 45.67 46.71 47.70 46.96 45.35 45.79 45.58 47.75 48.04 47.25 47.08 46.48
52.40 57.50 56.34 54.94 55.46 50.29 57.40 54.97 56.42 55.21 55.22 54.33 53.15 50.61 52.25 54.11 56.25 51.48 47.84 50.29 51.88 54.47 54.69 55.19 54.29 53.49 52.97 53.81 51.85 51.20 51.49 50.38 50.21 49.83 49.99 48.22 46.70 45.74 46.12 45.68 46.82 46.99 46.84 47.65 47.27 46.22 45.46 46.11 44.34 46.82 47.26 46.32 45.90 45.91
48.90 48.79 50.62 41.31 55.56 54.05 51.86 52.13 53.30 52.50 50.53 52.60 52.12 51.05 52.21 55.01 50.21 48.83 48.46 50.67 52.52 53.12 52.77 52.86 52.28 51.60 50.27 49.28 48.74 49.13 51.32 48.97 48.53 46.63 48.57 48.22 46.68 47.41 45.86 46.41 46.74 46.69 47.19 46.76 45.88 46.24 45.09 45.11 45.23 46.69 45.51 44.64 45.06 45.56
42.27 51.86 45.60 51.77 52.08 52.19 52.12 50.78 51.26 50.04 49.90 52.12 52.26 53.02 55.28 52.79 48.34 46.26 49.48 50.79 52.54 52.51 51.00 50.35 49.41 47.93 47.80 47.95 46.78 46.77 47.74 50.19 49.78 46.92 47.04 47.45 46.94 45.81 44.37 43.88 43.09 43.42 47.49 47.26 46.43 44.30 45.72 45.90 45.64 45.33 45.36 44.64 42.68 44.92
43.61 49.63 54.75 56.78 55.52 56.23 53.98 55.09 53.82 52.49 52.22 50.60 50.89 52.21 52.37 47.44 46.71 49.93 51.56 53.40 54.35 52.10 51.74 50.45 49.34 48.12 46.99 47.31 48.41 48.98 49.36 49.54 48.69 47.19 47.85 47.52 47.20 47.38 46.62 44.21 42.45 44.62 47.67 47.39 47.24 45.67 44.07 44.24 45.25 45.46 45.28 45.16 45.70 45.55
52.56 53.94 51.85 55.00 54.42 55.27 52.69 52.78 50.59 51.12 49.03 51.20 50.80 50.17 48.13 47.92 49.30 52.87 52.60 54.33 53.93 52.62 50.56 50.30 49.87 49.15 48.22 48.15 48.82 48.77 48.78 49.10 49.50 49.30 48.35 47.50 47.40 47.00 46.92 45.97 45.85 41.35 46.41 47.03 47.49 47.01 47.16 46.67 45.68 45.36 44.87 44.46 44.82 45.92
52.28 54.92 54.92 52.80 54.76 54.26 53.79 53.41 52.25 50.79 52.27 49.79 50.12 51.70 50.14 55.16 55.24 53.85 53.74 53.10 54.23 52.85 51.50 49.55 49.64 50.12 49.14 48.63 48.32 47.78 47.77 48.17 48.10 45.39 43.37 43.14 43.52 44.48 47.12 47.40 47.45 47.19 46.69 46.09 37.36 41.38 44.61 45.30 45.77 45.42 45.74 45.36 45.38 45.73
52.05 54.80 53.83 53.69 52.43 52.13 54.96 54.81 54.08 53.84 52.70 58.71 58.36 55.44 53.85 53.05 54.50 55.56 54.16 54.59 53.34 52.42 51.39 49.57 49.20 49.16 47.90 47.66 46.31 45.84 46.75 47.59 48.14 47.58 44.68 43.73 44.35 46.38 46.80 47.19 46.97 46.77 46.88 46.42 45.69 45.71 40.71 44.46 43.16 46.12 45.55 44.67 44.84 44.07
55.42 55.71 54.06 54.18 53.54 53.61 55.19 54.51 54.94 59.07 59.48 57.82 57.94 54.48 52.90 51.71 53.51 54.16 54.94 55.47 53.77 53.37 51.40 49.22 48.28 47.82 46.93 46.29 46.66 45.61 44.36 46.81 48.10 48.21 48.05 47.67 47.56 47.35 47.25 47.44 47.69 47.67 47.23 46.75 46.49 46.12 45.64 45.24 45.12 44.67 43.99 43.96 43.63 42.75
55.33 54.53 53.79 52.78 54.79 57.47 57.35 54.49 54.81 57.04 57.36 55.55 55.48 55.44 53.36 51.84 49.31 52.04 53.80 54.53 52.94 51.57 46.51 49.23 47.69 46.39 47.01 46.86 47.62 47.94 44.61 47.47 47.85 47.12 48.35 48.31 47.95 48.16 48.24 48.09 48.09 47.47 47.20 46.58 46.14 45.94 45.61 44.49 44.17 43.84 43.36 42.90 42.81 42.73
55.66 55.48 53.31 51.43 52.54 51.78 53.46 52.80 54.54 54.68 54.04 53.02 53.80 54.79 54.31 54.07 49.87 51.68 55.04 55.06 52.82 51.93 50.82 49.48 48.72 48.50 48.34 47.97 47.67 47.03 45.99 45.49 40.38 36.87 37.42 36.65 36.31 40.39 47.32 48.24 47.96 47.71 46.69 46.79 45.89 45.46 44.73 44.19 43.78 43.20 43.46 43.55 43.54 43.76
MSLP
1024.27 1024.15 1024.17 1023.93 1023.60 1023.25 1022.91 1022.85 1022.61 1022.36 1021.99 1021.64 1021.50 1021.19 1020.92 1020.89 1020.71 1020.21 1018.65 1018.91 1018.36 1016.76 1015.65 1015.52 1015.97 1016.09 1016.17 1016.45 1016.50 1016.12 1016.58 1016.77 1017.38 1018.26 1019.06 1019.53 1019.60 1019.52 1019.22 1018.81 1018.09 1017.33 1016.29 1015.55 1014.88 1014.05 1012.78 1012.70 1011.75 1011.67 1011.69 1011.13 1011.33 1011.20
1023.85 1023.78 1023.73 1023.65 1023.35 1023.11 1022.73 1022.66 1022.56 1022.30 1021.99 1021.73 1021.55 1021.29 1021.13 1021.12 1021.01 1020.90 1019.04 1018.75 1018.95 1018.06 1016.01 1015.57 1015.41 1015.59 1015.83 1016.00 1016.17 1016.19 1016.93 1017.35 1018.21 1018.90 1019.65 1020.29 1020.50 1020.39 1020.14 1019.41 1019.26 1018.87 1018.84 1018.44 1017.73 1015.62 1014.36 1014.38 1014.21 1013.84 1013.73 1012.99 1011.93 1012.16
1023.56 1023.55 1023.43 1023.20 1023.13 1022.93 1022.57 1022.53 1022.46 1022.28 1021.99 1021.74 1021.63 1021.38 1021.13 1021.16 1021.19 1021.14 1019.43 1018.73 1018.37 1017.34 1015.82 1015.35 1014.47 1015.07 1015.18 1015.33 1015.66 1015.85 1016.43 1017.21 1018.29 1018.93 1019.65 1020.36 1020.58 1020.76 1020.22 1019.74 1019.91 1019.56 1019.74 1019.36 1018.62 1016.16 1015.75 1015.35 1015.01 1014.71 1014.10 1013.29 1012.74 1012.58
1023.13 1023.12 1023.07 1022.82 1022.76 1022.56 1022.35 1022.37 1022.37 1022.21 1021.86 1021.69 1021.44 1021.26 1021.09 1021.09 1021.15 1021.17 1019.82 1018.83 1018.47 1017.84 1015.97 1014.77 1014.30 1014.60 1014.64 1014.75 1015.25 1015.56 1015.79 1015.83 1017.17 1018.43 1018.93 1019.29 1019.62 1020.24 1020.15 1020.09 1020.35 1020.37 1020.06 1019.66 1018.64 1017.77 1017.34 1016.11 1016.10 1015.43 1014.46 1013.63 1013.24 1012.48
1022.86 1022.94 1022.81 1022.55 1022.42 1022.12 1022.09 1022.13 1022.13 1022.03 1021.79 1021.55 1021.31 1021.13 1021.01 1021.01 1021.05 1020.84 1019.74 1019.11 1018.66 1018.75 1017.09 1015.02 1014.00 1014.01 1013.94 1014.42 1015.03 1015.27 1015.59 1015.18 1015.93 1017.17 1017.46 1017.54 1017.85 1019.00 1019.18 1019.57 1019.85 1019.89 1019.57 1019.49 1018.69 1018.24 1018.13 1017.20 1016.50 1015.90 1014.37 1012.55 1012.19 1011.39
1022.62 1022.64 1022.52 1022.29 1022.11 1021.87 1021.86 1021.84 1021.84 1021.73 1021.58 1021.35 1021.21 1021.07 1020.93 1021.02 1021.06 1020.01 1019.08 1018.53 1018.76 1018.53 1018.05 1014.85 1013.76 1013.27 1013.41 1013.88 1014.60 1014.78 1015.09 1014.43 1015.16 1014.89 1015.09 1015.47 1015.88 1016.95 1017.32 1017.97 1018.36 1018.69 1018.82 1018.83 1018.64 1018.00 1017.65 1017.39 1016.58 1015.79 1014.29 1012.88 1011.97 1011.23
1022.37 1022.46 1022.23 1021.96 1021.83 1021.67 1021.65 1021.60 1021.58 1021.46 1021.43 1021.19 1021.07 1020.95 1020.85 1020.92 1020.48 1019.65 1019.33 1019.12 1019.37 1018.88 1018.01 1015.42 1013.51 1013.06 1012.96 1013.62 1014.26 1014.17 1014.17 1014.17 1014.23 1014.01 1013.63 1014.24 1015.18 1015.99 1016.20 1017.13 1017.25 1017.71 1017.73 1017.90 1017.84 1017.55 1017.31 1017.04 1016.43 1015.80 1014.95 1013.97 1012.68 1011.74
1022.03 1022.13 1021.97 1021.69 1021.54 1021.47 1021.38 1021.35 1021.29 1021.23 1021.15 1020.93 1020.87 1020.83 1020.71 1020.74 1020.55 1019.17 1017.97 1019.38 1019.27 1018.43 1017.11 1015.22 1013.16 1013.22 1012.79 1013.35 1013.79 1013.55 1013.81 1013.79 1013.53 1013.01 1013.05 1013.39 1014.41 1015.38 1016.16 1016.19 1016.41 1016.40 1016.58 1017.01 1017.07 1017.01 1016.99 1016.76 1016.39 1015.96 1015.17 1014.49 1013.53 1012.58
1021.76 1021.79 1021.66 1021.36 1021.24 1021.25 1021.13 1021.13 1021.12 1021.03 1020.90 1020.82 1020.75 1020.69 1020.21 1020.13 1018.47 1018.00 1018.79 1019.07 1018.72 1018.41 1016.58 1015.17 1013.71 1012.49 1012.36 1012.45 1012.80 1013.30 1013.28 1013.27 1013.03 1012.39 1012.99 1014.02 1015.19 1015.89 1015.81 1015.63 1015.86 1015.97 1015.79 1015.82 1015.79 1015.83 1015.98 1015.77 1015.91 1015.85 1015.43 1014.93 1014.52 1013.93
1021.37 1021.42 1021.32 1021.05 1020.87 1020.88 1020.74 1020.83 1020.85 1020.73 1020.73 1020.68 1020.55 1019.55 1017.91 1017.59 1018.18 1018.47 1018.73 1018.21 1017.80 1016.97 1015.99 1013.65 1012.71 1011.98 1011.65 1011.97 1012.27 1012.33 1012.64 1012.76 1012.59 1012.30 1012.76 1014.22 1015.41 1015.37 1015.25 1014.95 1014.96 1015.27 1015.25 1015.23 1015.29 1015.49 1015.39 1015.18 1014.99 1015.54 1015.54 1015.39 1014.97 1014.67
1021.03 1021.03 1020.89 1020.69 1020.49 1020.46 1020.32 1020.48 1020.61 1020.64 1020.76 1019.97 1018.27 1017.01 1017.24 1018.13 1017.66 1016.86 1015.69 1014.85 1014.01 1013.37 1012.50 1011.34 1011.43 1011.22 1010.25 1011.20 1011.96 1011.97 1012.36 1012.54 1012.92 1012.11 1012.17 1013.93 1014.55 1014.35 1014.23 1014.56 1014.59 1014.50 1014.70 1015.00 1014.99 1015.13 1015.17 1015.02 1014.67 1014.82 1015.00 1014.85 1015.09 1015.04
1020.77 1020.73 1020.55 1020.25 1020.01 1019.82 1019.77 1019.99 1020.35 1020.31 1018.14 1018.93 1018.71 1016.81 1015.96 1016.34 1015.52 1014.50 1013.26 1011.45 1011.11 1011.04 1010.42 1009.70 1009.62 1010.03 1010.69 1011.68 1012.96 1012.77 1012.38 1012.84 1012.32 1011.90 1011.91 1013.71 1014.15 1014.09 1013.57 1013.58 1013.96 1014.05 1013.92 1014.26 1014.48 1014.69 1014.97 1014.60 1014.53 1014.41 1014.43 1014.42 1014.56 1014.65
1020.48 1020.37 1020.19 1019.86 1019.53 1019.26 1019.23 1019.60 1019.80 1019.34 1019.09 1017.07 1017.35 1015.42 1014.61 1013.82 1013.50 1012.52 1012.59 1012.38 1012.38 1012.72 1012.39 1011.07 1011.00 1010.83 1011.88 1012.51 1012.80 1013.43 1012.85 1012.97 1011.80 1012.28 1013.35 1013.72 1013.74 1013.52 1013.27 1013.19 1013.19 1013.11 1013.86 1013.55 1014.11 1014.50 1014.77 1014.16 1013.85 1014.08 1014.13 1014.25 1014.22 1014.43
1020.15 1019.89 1019.63 1019.47 1019.25 1019.24 1019.36 1019.56 1019.71 1019.82 1019.27 1016.11 1014.75 1014.21 1013.01 1012.03 1012.05 1012.17 1012.25 1011.84 1010.98 1011.34 1011.36 1011.51 1011.21 1011.15 1012.76 1014.07 1014.48 1014.18 1013.62 1012.71 1012.51 1013.01 1013.70 1013.80 1013.51 1012.93 1013.08 1013.03 1013.03 1013.01 1013.28 1013.53 1013.79 1013.86 1013.67 1013.47 1013.19 1013.49 1013.75 1013.74 1013.92 1014.13
1019.81 1019.47 1018.99 1018.59 1018.77 1018.98 1019.03 1019.23 1019.58 1019.05 1017.25 1014.44 1012.88 1012.35 1011.10 1010.58 1010.79 1010.56 1011.19 1010.80 1010.11 1009.81 1010.46 1010.28 1010.14 1011.81 1013.77 1014.33 1014.92 1014.50 1014.10 1012.93 1012.75 1013.17 1013.41 1013.51 1013.26 1013.10 1012.98 1012.89 1012.87 1012.62 1012.61 1013.39 1013.61 1013.37 1013.26 1013.40 1012.87 1012.71 1013.15 1013.49 1013.49 1013.41
1019.36 1018.61 1018.21 1018.48 1018.59 1018.63 1018.78 1018.99 1019.01 1017.46 1015.09 1013.36 1012.01 1010.66 1010.11 1010.37 1009.93 1009.41 1008.91 1008.87 1009.15 1009.43 1009.99 1010.19 1011.16 1012.34 1013.65 1014.49 1014.79 1014.51 1014.00 1013.37 1013.13 1012.79 1012.81 1013.10 1013.04 1012.99 1012.93 1012.77 1012.52 1012.41 1012.73 1012.61 1012.93 1013.02 1012.76 1012.59 1012.47 1012.47 1012.09 1012.82 1013.16 1013.11
1019.03 1017.61 1018.21 1018.41 1018.43 1018.43 1018.71 1018.21 1016.46 1015.18 1013.19 1011.39 1010.07 1009.93 1010.59 1009.62 1008.87 1008.85 1008.99 1008.71 1008.92 1009.31 1009.53 1010.06 1011.52 1012.72 1013.39 1013.83 1014.17 1014.23 1013.45 1013.33 1012.51 1012.16 1012.52 1012.69 1012.80 1012.93 1012.93 1012.65 1012.50 1012.55 1012.53 1012.66 1012.75 1012.56 1012.73 1012.33 1012.30 1012.44 1012.19 1012.13 1012.19 1012.97
1017.78 1017.98 1018.56 1018.52 1018.30 1017.92 1017.27 1017.11 1014.42 1012.40 1011.15 1010.15 1009.21 1009.56 1008.81 1008.59 1009.43 1009.44 1008.85 1009.09 1009.44 1009.54 1010.10 1011.37 1012.26 1012.56 1013.01 1013.20 1013.35 1013.55 1013.12 1012.43 1013.03 1012.31 1012.43 1012.46 1012.57 1012.80 1012.80 1012.64 1012.65 1012.58 1012.39 1012.63 1012.59 1012.46 1012.82 1012.33 1011.93 1011.65 1011.77 1011.84 1011.84 1012.87
1018.05 1017.98 1018.53 1018.48 1018.70 1018.10 1014.57 1014.00 1013.13 1011.22 1009.49 1008.95 1008.80 1008.58 1008.17 1009.36 1010.24 1009.37 1009.81 1009.86 1009.88 1010.55 1011.49 1011.52 1011.92 1012.58 1012.89 1013.17 1013.19 1013.16 1013.31 1012.33 1012.21 1012.90 1012.29 1012.68 1012.90 1012.64 1012.73 1012.70 1012.37 1012.20 1012.39 1012.26 1012.47 1012.25 1012.20 1012.41 1012.36 1012.10 1012.00 1012.05 1012.66 1012.42
1017.71 1017.44 1017.73 1017.93 1018.40 1016.34 1013.54 1011.70 1011.30 1010.49 1009.16 1008.66 1008.20 1007.94 1008.18 1009.89 1010.30 1010.51 1009.73 1009.35 1009.87 1010.17 1011.27 1011.42 1012.27 1012.74 1012.77 1012.49 1012.27 1012.16 1012.56 1012.06 1012.10 1012.84 1012.46 1012.94 1012.76 1012.66 1013.17 1012.97 1012.11 1012.22 1012.16 1012.37 1013.57 1013.35 1012.45 1012.19 1012.55 1012.51 1012.51 1012.89 1012.98 1013.03
1016.43 1016.30 1017.05 1017.24 1017.09 1015.37 1012.90 1010.47 1009.63 1008.84 1008.23 1007.84 1007.47 1007.60 1008.09 1009.47 1009.17 1008.91 1009.36 1009.72 1009.64 1009.83 1010.63 1011.42 1011.96 1011.79 1012.25 1012.44 1012.50 1012.51 1012.45 1012.37 1012.19 1012.35 1012.58 1012.22 1012.39 1012.01 1012.41 1012.65 1012.40 1012.67 1013.58 1014.05 1013.83 1014.07 1013.26 1012.79 1013.07 1012.68 1012.68 1012.94 1013.38 1013.76
1015.63 1016.13 1015.50 1016.03 1014.41 1012.38 1011.46 1010.12 1009.07 1009.51 1008.59 1007.81 1008.74 1007.99 1009.16 1008.42 1008.52 1008.75 1009.46 1010.33 1010.13 1010.53 1011.29 1011.41 1011.67 1011.93 1012.31 1012.72 1012.89 1012.79 1012.93 1013.46 1012.80 1013.11 1013.18 1013.89 1013.38 1013.28 1013.12 1013.23 1012.62 1013.13 1013.94 1015.21 1014.96 1015.11 1014.21 1013.42 1013.52 1013.16 1013.48 1013.62 1014.09 1014.29
1015.71 1015.46 1014.37 1013.02 1012.39 1011.30 1010.56 1009.18 1008.57 1008.10 1007.80 1007.50 1007.59 1007.63 1008.03 1007.85 1008.45 1009.37 1011.32 1010.61 1010.37 1010.63 1010.90 1011.29 1011.62 1012.04 1012.32 1012.36 1012.55 1012.49 1012.97 1012.64 1012.17 1012.92 1012.99 1013.07 1013.62 1013.61 1013.64 1013.70 1012.92 1013.08 1013.18 1013.61 1014.08 1015.15 1015.47 1015.15 1014.33 1013.63 1013.86 1014.41 1014.35 1015.03
1015.23 1014.31 1012.31 1011.29 1011.07 1010.45 1009.00 1008.27 1007.94 1007.61 1007.32 1007.21 1007.45 1006.91 1007.48 1007.76 1008.48 1009.93 1010.65 1010.49 1010.40 1010.44 1010.75 1010.99 1011.27 1011.44 1011.78 1011.75 1011.63 1012.25 1012.04 1011.61 1011.98 1012.88 1013.21 1013.56 1013.71 1014.51 1015.21 1015.38 1014.20 1013.91 1013.78 1013.98 1015.03 1015.87 1016.21 1015.94 1015.73 1014.63 1014.31 1014.73 1014.91 1014.59
1014.67 1013.59 1012.38 1011.17 1009.79 1008.99 1007.85 1007.73 1007.42 1007.65 1008.29 1008.05 1007.39 1007.05 1007.08 1007.55 1008.61 1009.88 1010.34 1010.86 1010.30 1010.60 1010.69 1010.80 1010.61 1010.64 1010.77 1011.16 1011.46 1011.70 1012.10 1012.02 1012.15 1013.56 1013.87 1014.28 1015.03 1014.44 1014.64 1014.54 1014.67 1014.47 1014.48 1014.78 1015.52 1015.88 1016.79 1016.65 1016.45 1015.50 1015.78 1015.69 1015.27 1015.40
1013.40 1011.46 1010.82 1008.81 1008.03 1007.64 1007.13 1006.89 1007.20 1008.35 1008.86 1007.75 1006.98 1007.54 1006.81 1007.45 1008.50 1009.63 1010.53 1011.41 1011.81 1011.19 1011.33 1011.21 1011.07 1011.08 1011.23 1011.93 1012.31 1012.62 1012.76 1012.75 1013.35 1014.00 1014.45 1014.44 1014.73 1014.79 1015.45 1015.73 1015.91 1015.74 1014.89 1016.38 1016.69 1016.30 1015.86 1016.10 1015.98 1015.91 1015.93 1016.34 1016.49 1016.41
1011.79 1009.54 1008.47 1007.87 1007.25 1006.60 1006.51 1006.73 1008.15 1008.77 1008.47 1008.14 1008.67 1007.85 1007.11 1007.65 1008.74 1010.06 1011.43 1011.98 1012.05 1011.70 1011.83 1011.81 1011.82 1011.89 1012.09 1012.45 1013.08 1013.51 1013.64 1013.82 1014.19 1014.65 1014.87 1014.88 1015.19 1015.55 1015.84 1016.11 1016.29 1016.44 1015.95 1016.69 1016.56 1016.89 1017.47 1017.09 1016.32 1016.28 1016.30 1016.96 1016.76 1016.69
1009.66 1008.05 1006.93 1006.41 1006.40 1006.51 1006.41 1006.81 1008.18 1008.85 1010.00 1010.50 1010.09 1008.40 1008.77 1007.91 1009.44 1010.43 1011.41 1011.86 1011.54 1011.82 1012.13 1012.34 1012.69 1012.89 1012.95 1012.94 1013.07 1013.45 1013.79 1014.06 1014.39 1014.67 1014.97 1015.17 1015.47 1015.83 1016.14 1016.57 1016.87 1017.12 1017.21 1017.35 1017.44 1017.41 1016.91 1016.71 1017.09 1016.91 1016.81 1016.85 1017.13 1017.45
1008.28 1007.11 1006.64 1006.08 1005.89 1005.82 1006.11 1006.16 1007.19 1009.40 1010.25 1010.50 1009.71 1008.60 1009.28 1009.09 1010.16 1011.03 1011.45 1011.65 1011.27 1011.20 1011.26 1011.60 1012.10 1012.27 1012.71 1013.31 1013.53 1013.62 1013.52 1013.31 1013.73 1014.43 1014.80 1014.95 1015.43 1015.95 1016.23 1016.31 1016.51 1016.59 1017.00 1017.58 1017.99 1017.94 1017.94 1017.73 1017.46 1017.57 1017.43 1017.58 1017.42 1017.51
1006.81 1006.19 1005.49 1005.49 1005.74 1006.05 1006.36 1007.16 1007.79 1008.03 1009.49 1007.41 1007.05 1008.88 1009.92 1010.72 1011.09 1011.23 1011.51 1011.13 1010.96 1010.97 1011.45 1011.75 1012.06 1012.22 1012.45 1012.76 1013.55 1014.19 1014.31 1014.07 1013.99 1014.06 1014.34 1014.89 1015.51 1016.08 1016.33 1016.47 1016.63 1016.74 1016.97 1017.17 1017.48 1017.92 1018.22 1018.09 1018.15 1018.05 1017.87 1018.05 1017.95 1018.35
1005.05 1004.65 1004.83 1005.11 1005.55 1007.40 1008.06 1008.47 1007.97 1006.89 1006.31 1007.45 1008.36 1009.44 1010.47 1011.57 1012.07 1011.62 1011.43 1011.05 1011.11 1011.34 1011.56 1011.82 1012.28 1012.81 1012.91 1013.22 1013.47 1013.93 1014.72 1015.22 1015.37 1015.43 1015.23 1015.55 1016.09 1016.53 1016.69 1016.79 1016.91 1017.10 1017.27 1017.35 1017.54 1017.61 1017.71 1017.89 1018.15 1018.25 1018.41 1018.38 1018.61 1018.55
1004.57 1004.41 1004.56 1005.03 1006.07 1007.92 1008.52 1008.40 1007.91 1006.25 1006.96 1007.56 1008.55 1009.70 1010.84 1011.02 1011.03 1011.08 1011.46 1011.33 1011.48 1011.47 1012.46 1012.38 1012.66 1013.51 1014.10 1014.46 1014.77 1015.09 1015.28 1015.74 1016.27 1016.84 1016.57 1016.32 1016.73 1017.00 1017.01 1016.99 1017.10 1017.31 1017.49 1017.54 1017.65 1017.89 1018.11 1018.16 1018.34 1018.52 1018.64 1018.70 1018.77 1018.79
1003.99 1004.03 1005.58 1006.80 1007.64 1009.70 1010.02 1009.85 1007.45 1006.55 1007.35 1008.15 1008.65 1008.84 1009.49 1010.29 1010.81 1011.45 1011.62 1011.53 1011.85 1011.59 1012.08 1012.97 1013.57 1014.16 1014.74 1014.97 1015.61 1016.22 1016.77 1017.75 1018.23 1018.42 1018.62 1018.63 1018.68 1018.56 1017.63 1017.45 1017.57 1017.57 1017.67 1017.67 1017.72 1017.96 1018.11 1018.38 1018.66 1018.81 1018.78 1018.78 1018.76 1018.86
Wind_Speed
7 9 11 11 10 10 11 11 11 11 8 8 7 5 5 6 7 7 4 4 5 6 7 4 2 2 3 2 3 7 1 3 4 4 3 3 3 3 3 3 8 6 7 3 8 11 15 18 14 9 10 13 13 17
7 8 10 11 10 9 9 9 10 10 8 7 6 4 3 5 5 5 4 2 4 5 6 7 3 3 3 1 4 5 3 5 3 1 1 0 2 2 4 3 3 3 4 5 4 6 13 16 12 17 16 17 22 18
7 8 9 9 9 8 9 9 10 10 8 6 7 5 3 5 6 6 7 4 5 7 8 8 7 8 6 7 4 3 3 5 4 3 3 0 3 2 3 3 2 6 7 3 7 4 16 19 20 18 18 19 15 20
7 8 9 9 8 8 9 8 9 9 8 7 7 7 6 6 7 7 6 5 6 7 5 3 1 6 5 6 4 3 6 4 9 4 3 3 2 4 3 3 2 2 5 5 8 13 13 9 11 15 17 14 19 25
6 8 10 9 8 8 8 8 9 9 8 8 7 7 6 7 6 8 7 7 5 4 6 9 4 9 9 6 6 8 6 11 3 4 5 6 3 4 4 3 1 3 3 3 5 11 10 10 13 15 22 16 17 11
6 8 10 9 8 8 8 8 9 9 8 8 7 7 5 6 6 5 3 3 4 3 4 5 2 4 5 5 6 7 7 9 4 4 6 2 2 5 3 1 5 4 6 1 4 11 6 14 12 17 16 16 10 10
6 8 10 9 8 7 7 8 8 8 8 8 7 7 5 6 7 4 4 3 7 5 4 5 3 1 2 3 2 8 7 7 6 5 8 6 5 4 2 2 9 7 1 1 3 4 5 10 9 13 15 17 15 9
6 8 10 8 8 7 6 7 7 7 7 7 7 7 7 8 11 7 4 5 3 4 5 4 5 4 5 2 2 5 3 5 4 6 4 2 3 5 0 6 6 9 7 2 2 3 2 6 6 11 11 12 14 16
6 9 9 8 7 7 7 7 7 7 6 6 7 5 4 5 5 2 8 5 5 5 4 2 4 5 6 1 1 3 3 4 5 3 1 4 3 2 5 6 4 4 7 9 6 9 6 6 5 8 12 12 12 11
6 9 9 9 7 7 7 7 7 6 6 5 6 6 5 2 14 9 3 5 6 6 6 6 9 5 5 2 3 4 4 4 2 3 5 3 3 6 6 4 4 1 7 7 8 8 11 12 9 5 10 10 11 10
7 9 10 10 8 7 7 7 7 5 5 6 6 2 6 5 5 4 5 6 7 6 7 8 6 9 4 3 4 2 3 2 2 4 6 5 3 4 6 5 3 4 4 3 6 7 6 7 9 10 7 9 8 8
8 9 10 10 10 10 9 8 9 5 3 6 5 7 4 5 6 7 6 5 2 4 3 7 2 3 3 4 4 5 3 3 4 6 3 1 1 1 4 3 11 4 3 4 4 4 4 4 6 5 6 9 9 8
9 10 10 10 10 8 4 8 15 15 14 7 6 5 3 5 2 5 1 5 7 7 8 13 13 1 2 1 3 3 4 2 5 5 2 3 2 4 4 5 5 2 3 1 8 3 8 6 4 5 6 8 8 8
10 11 9 8 7 5 2 6 9 6 6 6 5 4 5 6 2 4 4 11 1 3 2 4 7 2 5 4 4 5 5 4 2 2 1 4 4 4 5 5 6 8 13 3 6 2 1 4 6 9 6 6 7 8
12 14 11 10 8 6 6 8 10 6 5 6 4 3 7 4 6 2 4 4 2 3 4 6 5 5 3 2 3 4 4 3 4 4 3 1 2 6 5 5 6 8 6 8 6 4 5 5 6 8 11 4 6 5
13 18 4 9 4 4 2 7 7 5 5 5 6 9 2 3 6 9 3 8 8 10 8 3 5 3 3 1 2 1 5 3 4 5 2 4 2 5 4 5 7 7 6 5 5 7 7 5 4 6 7 10 4 5
11 4 11 6 0 1 5 5 8 7 6 5 5 4 5 11 6 12 6 5 8 4 4 4 4 1 3 2 2 3 3 5 6 6 4 5 4 4 5 7 6 7 7 6 5 4 8 9 7 5 5 7 8 9
5 7 7 5 7 4 5 7 6 6 9 10 8 4 7 6 5 5 6 6 6 7 6 7 2 2 2 5 4 4 6 5 5 7 6 4 4 4 5 7 6 8 5 3 5 5 3 7 7 5 7 9 8 16
11 12 5 6 4 5 5 8 6 6 7 4 3 6 4 5 5 6 8 2 5 6 4 2 2 3 3 4 6 6 10 9 2 10 5 1 5 5 4 7 7 6 7 6 5 4 3 4 7 7 7 8 8 7
20 19 14 7 10 6 6 4 6 5 4 3 6 4 3 11 7 4 6 4 3 3 1 3 3 3 5 2 5 5 5 8 2 5 5 4 6 5 4 13 7 8 8 9 3 7 3 2 4 4 6 8 6 9
4 7 7 9 7 7 7 5 7 6 3 5 5 4 4 4 1 3 6 2 2 4 4 6 4 3 2 6 8 7 5 7 7 8 7 5 3 4 9 8 9 10 13 10 4 6 11 4 5 2 7 7 7 5
3 7 4 8 5 7 7 7 5 7 5 3 5 1 4 6 3 3 6 2 3 5 4 3 6 7 3 5 2 6 10 12 6 5 9 10 9 8 6 6 6 6 7 2 2 5 8 8 6 6 5 5 6 9
4 5 5 6 6 1 7 6 5 6 4 4 4 1 3 1 1 7 4 5 3 2 3 4 3 5 6 3 5 4 2 7 3 2 3 3 5 5 6 8 7 8 4 3 7 7 9 13 5 2 7 6 7 7
1 5 6 5 9 6 8 8 8 7 6 3 7 4 2 3 3 4 2 1 2 3 4 1 3 1 7 7 5 5 4 7 7 4 6 6 5 7 8 7 7 5 5 10 11 8 6 7 13 9 8 8 8 6
2 6 4 6 5 7 8 6 13 4 8 11 13 3 5 4 3 3 3 2 3 7 5 6 6 4 4 7 8 7 10 9 7 9 4 9 4 2 2 2 6 7 5 6 6 9 7 1 7 6 7 6 7 9
4 7 6 6 8 10 7 11 6 1 9 11 4 6 2 4 5 3 3 7 5 6 6 6 6 7 7 8 8 7 8 7 10 9 6 5 9 7 8 7 6 7 10 12 5 6 2 7 6 5 10 10 9 7
5 7 9 9 9 8 6 3 8 5 11 6 7 7 7 6 4 4 6 4 2 4 5 6 6 6 6 6 7 7 7 8 9 8 7 7 8 7 6 5 5 7 9 10 7 10 9 11 5 6 8 8 3 8
8 7 11 9 8 8 12 7 11 4 7 5 5 3 7 7 6 6 8 5 3 5 5 5 6 6 6 5 5 6 6 7 8 7 5 7 7 7 8 8 7 9 9 9 8 7 3 8 6 2 6 7 9 5
8 9 11 12 12 7 8 12 3 3 3 7 5 2 4 6 11 8 5 5 5 6 3 4 3 6 8 6 4 5 5 2 8 6 7 4 6 6 5 5 4 4 8 9 10 9 8 7 9 8 6 4 6 5
12 11 12 11 12 11 6 4 2 5 10 9 10 12 10 8 6 6 3 1 2 3 5 4 4 3 3 4 7 5 4 4 5 3 5 7 8 7 5 5 5 6 5 6 8 7 1 2 5 4 4 5 6 7
11 9 9 10 6 3 2 6 11 14 7 12 10 9 6 4 1 3 2 2 3 3 3 4 6 6 5 4 3 6 6 4 5 7 7 8 7 6 4 4 5 5 4 4 5 3 3 5 4 7 7 8 7 5
8 9 9 12 5 7 8 4 15 2 5 9 7 6 4 4 5 6 2 2 1 4 3 2 6 6 6 5 6 7 10 8 10 10 13 7 7 6 5 4 4 5 3 4 4 5 4 4 7 6 5 6 4 3
8 4 9 6 5 6 1 4 9 4 8 6 1 3 5 1 4 4 2 1 3 3 7 7 7 7 7 8 8 7 11 10 11 9 12 14 14 13 9 7 5 4 4 3 5 5 5 5 5 2 2 0 4 6
Wind_Direction
279 298 310 318 329 334 334 325 320 321 333 342 333 335 338 322 327 315 55 39 325 323 82 14 112 259 221 166 262 11 7 340 51 31 18 10 329 356 308 281 325 296 314 286 238 245 261 9 316 249 328 315 310 310
269 292 306 312 324 331 332 317 314 315 323 336 329 325 326 307 306 309 289 100 331 281 332 324 305 316 209 353 333 25 45 35 74 53 105 271 302 311 311 332 14 292 333 314 305 310 319 308 313 310 308 296 292 300
267 289 302 309 319 325 325 311 307 309 311 316 319 312 298 275 280 271 317 21 263 267 272 241 224 188 198 200 79 317 103 122 161 284 70 159 261 32 311 302 343 346 27 291 324 328 324 314 313 304 284 275 295 292
258 286 297 308 314 316 317 306 301 302 298 297 298 289 272 259 264 269 285 319 302 304 283 4 74 189 207 169 221 283 290 205 120 136 187 171 215 173 266 301 220 256 287 264 253 280 304 285 315 308 306 289 269 266
257 288 296 308 307 309 311 304 292 293 292 290 291 292 264 243 249 264 272 277 289 311 310 310 188 236 184 222 221 256 271 282 141 175 207 200 179 180 196 248 263 243 277 304 287 307 285 289 307 319 289 268 255 279
262 287 296 305 306 309 304 299 286 284 286 285 288 292 264 243 243 259 264 113 10 32 295 295 158 196 203 177 242 255 261 272 186 267 282 176 150 216 250 122 265 181 222 260 306 306 318 318 318 326 339 352 14 352
263 287 294 304 310 316 303 301 284 276 279 280 279 282 271 246 251 257 340 20 345 308 245 269 287 330 54 112 230 247 244 265 297 245 244 140 211 210 358 13 353 137 190 241 4 336 304 341 335 345 352 346 354 6
262 284 293 307 311 318 303 298 285 274 274 276 267 271 258 259 270 258 256 187 277 251 252 269 280 142 198 158 236 235 189 222 240 237 313 66 132 36 303 341 60 347 111 31 69 151 242 297 4 5 358 2 359 7
268 284 293 304 311 313 305 287 282 269 264 267 258 268 243 228 229 107 118 169 228 274 287 250 283 296 168 308 164 186 212 238 237 229 147 82 84 236 216 292 60 352 2 15 37 70 87 52 39 34 24 12 6 10
270 283 293 300 306 300 293 278 266 254 251 252 234 210 211 79 124 141 154 186 197 207 227 238 221 249 240 199 270 251 181 212 228 225 145 109 227 221 234 286 114 79 340 16 39 21 21 14 43 76 68 34 12 12
276 286 293 298 303 292 278 255 243 228 223 222 215 274 79 126 228 229 242 214 187 211 210 234 190 235 190 241 237 255 239 151 221 251 186 152 252 166 145 178 202 167 136 23 18 39 30 21 354 57 43 74 72 30
283 292 297 306 307 291 270 230 205 221 318 333 304 267 189 219 225 241 237 249 178 261 228 248 195 345 44 52 38 286 249 187 265 248 85 55 213 305 133 131 167 214 215 132 121 69 40 25 29 30 59 59 48 62
290 296 302 313 323 338 244 215 220 281 310 250 216 226 214 247 319 227 163 258 8 16 336 347 356 30 93 108 181 238 239 255 242 45 150 221 81 230 106 18 39 74 88 302 107 106 33 336 72 49 47 87 66 71
294 291 295 294 287 292 269 228 223 232 249 245 206 277 252 223 38 215 298 351 225 197 258 260 260 20 40 73 298 345 339 247 149 60 37 336 1 341 77 28 7 347 116 4 31 89 4 54 18 133 89 58 68 84
297 292 291 270 211 265 276 234 209 217 269 249 233 230 243 318 294 21 358 284 300 190 207 286 342 80 57 96 357 341 310 321 46 1 352 167 29 64 26 355 354 330 26 82 292 103 56 349 40 43 127 99 84 60
307 295 180 137 194 289 175 177 181 238 240 240 241 265 276 196 264 297 13 8 1 26 322 53 31 25 57 55 297 332 338 305 6 295 191 46 4 57 27 331 345 349 334 65 52 8 350 7 34 56 35 141 127 92
304 246 157 153 214 112 213 256 191 223 256 243 245 68 11 295 301 356 29 10 1 337 332 25 14 52 332 286 287 239 306 319 303 350 81 87 42 39 331 313 344 343 337 344 359 347 19 327 34 10 33 44 116 115
254 127 132 55 351 150 219 214 258 240 233 240 263 348 267 347 16 241 49 43 358 346 35 29 83 270 298 330 2 347 314 322 350 337 19 34 37 3 311 327 332 311 304 277 329 353 43 322 318 24 50 44 48 120
297 307 256 301 292 303 232 194 235 268 249 257 349 326 305 79 200 12 30 264 64 38 125 246 21 348 353 2 325 332 340 304 26 309 77 69 304 298 297 285 274 283 301 259 240 271 125 44 1 12 34 37 33 43
274 269 261 235 198 243 235 231 182 262 299 278 244 285 293 38 354 161 249 42 108 142 187 51 3 357 301 268 330 328 232 313 61 243 333 92 261 242 230 267 342 323 276 96 340 325 299 204 71 75 52 46 15 41
270 134 142 173 202 237 291 285 209 243 280 291 309 308 126 179 224 358 108 130 334 41 39 40 1 308 9 359 359 347 12 344 338 341 350 310 239 11 24 358 348 33 34 8 348 0 349 74 76 332 54 53 81 95
76 171 232 185 258 219 231 236 238 193 257 294 16 3 134 267 52 30 80 207 38 56 73 14 352 342 66 46 9 315 40 347 356 48 51 333 19 355 6 329 279 77 81 187 74 51 268 47 358 60 92 99 71 47
245 200 234 230 233 284 252 269 252 252 225 236 358 57 236 121 127 73 39 277 88 244 100 40 353 311 282 81 243 315 219 251 282 81 185 95 17 341 358 343 1 6 45 114 82 60 21 349 299 91 96 60 42 80
165 258 242 229 191 239 240 213 221 245 261 353 233 199 180 58 54 65 150 4 36 117 144 263 110 226 174 218 247 138 341 329 67 67 30 17 67 56 44 338 318 1 357 47 58 48 31 10 8 344 46 65 50 14
242 264 175 263 259 222 239 219 251 46 312 204 251 164 190 122 126 158 142 240 12 33 7 355 345 319 29 21 12 35 30 355 63 95 84 59 26 67 307 106 33 10 45 39 60 88 80 259 243 76 61 16 74 72
223 222 179 236 217 231 236 238 207 10 324 243 246 24 303 172 137 164 112 65 332 32 10 2 5 1 41 41 34 25 29 33 73 68 49 30 49 23 70 45 39 319 47 78 347 34 30 137 85 79 73 63 57 62
244 247 211 244 284 274 247 306 33 291 245 249 27 279 187 182 108 92 85 81 288 59 28 18 38 32 42 63 74 60 59 65 70 67 50 50 68 76 76 81 44 3 39 101 96 96 8 304 65 82 102 96 24 69
244 273 274 223 221 253 264 241 177 201 73 314 240 360 44 305 69 80 114 145 145 74 67 85 84 65 40 27 99 125 134 133 119 92 64 85 70 67 63 72 78 45 70 42 42 6 73 71 100 107 67 52 80 88
241 239 246 263 255 235 255 270 351 65 180 152 252 141 164 85 113 119 140 172 175 206 150 119 114 162 129 111 60 22 360 342 127 101 126 115 95 94 109 98 110 111 93 104 64 53 48 44 35 45 81 65 59 51
237 246 249 234 250 262 319 80 57 181 200 244 93 105 95 73 83 103 117 198 158 150 65 57 59 41 62 101 95 59 33 359 29 79 125 103 110 105 91 86 80 91 87 101 108 123 131 243 104 89 38 69 58 39
241 215 234 259 273 107 105 357 306 258 97 84 79 112 112 117 3 282 256 331 96 119 153 116 82 35 29 42 70 126 99 74 63 39 32 105 103 97 88 96 103 92 94 82 98 74 77 117 103 45 31 56 53 12
245 247 262 260 235 67 30 343 271 224 151 122 116 107 141 168 160 160 188 142 173 134 67 341 85 83 71 60 77 68 71 83 51 35 5 89 107 122 157 136 111 90 91 111 92 78 83 66 57 45 46 27 33 18
241 247 53 59 41 33 146 204 275 82 46 45 36 177 136 90 73 92 93 60 8 65 97 83 84 85 89 89 90 86 72 85 87 71 67 62 52 28 5 43 60 120 121 89 98 115 113 103 99 125 170 343 38 24